Location: *
(49.8528°S, 176.0996°W)
Time: 22:59:28
(UTC+00:00)

Daily predictions for brighter satellites

Satellite Brightness Start Highest point End
(mag) Time Altitude Azimuth Time Altitude Azimuth Time Altitude Azimuth
Cosmos 2263 Rocket 4.2 15:22:53 23° ENE 15:22:53 23° ENE 15:25:09 10° ENE
Cosmos 1980 Rocket 3.7 15:35:06 34° E 15:35:06 34° E 15:39:14 10° SE
SL-16 R/B 4.3 15:47:34 10° S 15:49:28 21° S 15:49:28 21° S
ISS -0.1 16:01:58 10° E 16:01:58 10° E 16:02:03 10° E
SeaSat 1 3.1 16:09:46 10° NE 16:14:02 53° E 16:14:02 53° E
S3M 4.0 16:17:53 40° S 16:20:17 78° E 16:26:36 10° NNE
Helios 1A 4.5 16:18:11 10° SSE 16:21:07 34° ESE 16:21:07 34° ESE
USA 234 3.1 16:18:53 10° ESE 16:25:33 86° SSW 16:26:20 72° WNW
SL-16 R/B 4.3 16:21:04 10° NNE 16:25:39 26° ENE 16:30:15 10° SE
Cosmos 1697 Rocket 3.7 16:30:03 35° S 16:30:03 35° S 16:33:33 10° SSE
Cosmos 2266 Rocket 4.0 16:31:04 10° N 16:37:10 78° E 16:43:18 10° SSE
Cosmos 1417 Rocket 4.4 16:41:05 64° WSW 16:41:31 66° W 16:47:51 10° N
Cosmos 1844 Rocket 3.8 16:38:48 23° S 16:41:47 39° SE 16:47:00 10° ENE
Blok-L 3.8 16:42:19 77° NNE 16:42:19 77° NNE 16:49:13 10° NE
SMAP 3.6 16:37:41 10° NNE 16:42:18 59° ESE 16:44:17 33° S
Exosat Rocket 3.8 16:42:08 48° S 16:43:29 70° ESE 16:49:10 10° NE
Blok-ML 4.3 16:53:40 72° WSW 16:54:06 86° NW 17:05:52 10° NE
SJ-11-01 4.3 16:49:51 10° NNE 16:54:35 84° ESE 16:56:12 42° S
Cosmos-2242 4.2 16:53:04 10° NNE 16:57:13 44° E 17:01:27 10° SSE
Cosmos 2369 3.6 16:58:25 57° W 16:59:09 62° WSW 17:04:53 10° SSE
BREEZE-M DEB (TANK) 2.7 17:00:03 50° NE 17:00:03 50° NE 17:01:58 10° E
DNEPR-1 R/B 3.3 17:02:35 72° S 17:02:53 78° SE 17:07:05 10° NE
Cosmos 2263 Rocket 2.7 17:04:38 39° NW 17:04:38 39° NW 17:09:03 10° N
ADEOS 4.4 16:59:51 10° NE 17:04:54 49° ESE 17:10:00 10° S
Cosmos 2278 3.7 17:03:04 10° NNW 17:08:47 83° ENE 17:14:35 10° SSE
Genesis I 4.4 17:11:30 28° NNW 17:11:30 28° NNW 17:13:44 10° NNE
ARGOS 3.3 17:06:15 10° N 17:11:35 52° W 17:13:08 40° SW
Cosmos 883 Rocket 4.4 17:06:51 10° SSW 17:12:59 63° W 17:19:03 10° N
Cosmos 1544 3.9 17:13:48 23° SSE 17:15:38 47° ESE 17:18:56 10° NNE
Cosmos 1992 Rocket 4.2 17:13:05 21° SSW 17:16:44 72° ESE 17:21:58 10° NNE
Cosmos 1980 Rocket 2.5 17:16:55 41° W 17:17:56 45° SW 17:23:28 10° SSE
CBERS 1 LM4 rocket 4.3 17:14:12 10° NNE 17:19:06 88° WNW 17:23:03 16° SSW
CZ-4 R/B 4.3 17:17:52 10° E 17:19:44 13° ESE 17:21:36 10° SSE
Cosmos 1666 3.5 17:16:51 14° S 17:19:54 48° ESE 17:23:29 10° NNE
Cosmos 2278 Rocket 4.4 17:17:04 10° S 17:20:40 17° SSE 17:24:14 10° ESE
SL-24 R/B 4.4 17:16:16 10° N 17:20:55 77° WNW 17:26:28 10° SSW
SL-08 R/B 4.3 17:20:35 10° SSE 17:25:07 47° E 17:29:36 10° N
AQUARIUS 4.1 17:24:05 10° N 17:28:35 66° WNW 17:31:36 21° SSW
Cosmos 2315 Rocket 4.1 17:23:44 10° SSW 17:29:50 54° W 17:35:52 10° NNW
CZ-2C R/B 4.0 17:26:28 10° S 17:28:52 20° SSW 17:28:52 20° SSW
CENTAUR R/B 4.4 17:27:03 10° N 17:34:27 38° ENE 17:40:48 10° SE
ISS -3.7 17:34:51 54° WNW 17:35:25 67° NNW 17:38:49 10° ENE
BREEZE-M DEB (TANK) 2.2 17:35:27 38° NNW 17:35:55 45° NNE 17:39:05 10° E
SL-16 R/B 4.3 17:32:48 10° SSW 17:34:33 14° SSW 17:34:33 14° SSW
CZ-4B R/B 4.0 17:33:06 10° NNW 17:37:50 37° W 17:39:40 28° WSW
Timation 2 Rocket 4.1 17:35:22 25° SW 17:38:49 52° WNW 17:44:51 10° N
YAOGAN 1 4.3 17:35:31 10° NE 17:39:23 32° ESE 17:43:19 10° S
Cosmos 614 Rocket 4.4 17:34:40 10° N 17:39:46 65° ENE 17:44:53 10° SSE
SL-08 RB Rocket 4.3 17:37:43 10° NNW 17:41:47 33° W 17:42:34 31° WSW
SKYMED 2 4.5 17:39:18 10° SSE 17:43:39 53° E 17:47:57 10° N
Cosmos 1242 Rocket 2.8 17:43:59 39° W 17:44:01 39° W 17:47:13 10° NNW
Cosmos 2237 4.3 17:39:50 10° NNW 17:45:35 82° ENE 17:51:24 10° SSE
Cosmos 1655 Rocket 4.3 17:39:56 10° NW 17:45:53 44° WSW 17:51:57 10° S
Cosmos 1602 3.5 17:44:57 15° SSW 17:47:59 69° W 17:51:44 10° N
Cosmos 1782 4.1 17:47:47 10° NNE 17:51:32 43° E 17:55:22 10° SSE
SeaSat 1 3.5 17:48:13 10° NNW 17:52:22 27° WNW 17:53:47 23° W
Cosmos 1461 2.6 17:51:10 27° SW 17:53:09 71° NW 17:57:06 10° NNE
Cosmos 1818 3.8 17:49:20 17° WNW 17:53:23 49° SW 17:58:39 10° SSE
Cosmos 1766 Rocket 4.0 17:48:54 10° S 17:53:27 68° ESE 17:57:54 10° NNE
Meteor PRIRODA 3.6 17:50:10 10° N 17:53:46 61° WNW 17:56:47 14° SSW
Cosmos 44 3.8 17:54:38 25° W 17:56:06 32° WNW 17:59:55 10° N
NOAA 6 4.0 17:51:05 10° N 17:56:14 67° WNW 18:01:27 10° SSW
Helios 1A 4.0 17:53:56 10° S 17:57:22 24° WSW 17:57:32 24° WSW
Meteor 1-20 Rocket 4.2 17:55:45 10° SSW 18:01:24 70° W 18:07:07 10° N
Cosmos 1500 3.7 18:01:15 19° SW 18:03:23 35° W 18:06:47 10° NNW
Meteor 1-25 Rocket 4.2 18:01:47 10° SSW 18:07:30 72° W 18:13:04 10° N
USA 234 3.6 18:01:53 10° ESE 18:08:15 52° S 18:13:41 15° W
SL-16 R/B 2.2 18:03:39 10° NW 18:09:19 63° WSW 18:15:02 10° SSE
Resurs 01 Rocket 4.4 18:08:53 10° ESE 18:10:31 12° SE 18:12:08 10° SSE
CZ-4B R/B 3.1 18:08:10 10° N 18:12:24 61° WNW 18:16:52 10° SSW
Cosmos 2322 Rocket 2.1 18:07:00 10° NNW 18:12:40 81° WSW 18:18:23 10° SSE
Cosmos 1697 Rocket 4.3 18:11:49 14° SW 18:13:18 16° SSW 18:16:43 10° S
Cosmos 1844 3.8 18:07:42 11° SW 18:13:21 62° WNW 18:19:03 10° NNE
Okean O Rocket 3.4 18:10:31 10° NE 18:14:25 31° ESE 18:18:20 10° S
DELTA 2 DEB (DPAF) 4.1 18:14:24 10° SSE 18:18:51 82° WSW 18:23:14 10° NNW
Cosmos 2360 Rocket 2.3 18:14:08 10° NNW 18:19:49 84° ENE 18:25:35 10° SSE
SMAP 4.4 18:16:35 10° NW 18:20:01 20° W 18:22:45 13° SW
Cosmos 2221 2.6 18:19:08 10° N 18:23:31 88° E 18:27:56 10° S
USA 186 4.4 18:21:29 10° ENE 18:23:57 20° ESE 18:26:29 10° SSE
Cosmos 1844 Rocket 3.1 18:20:29 10° SW 18:25:44 43° WNW 18:30:59 10° N
PAYLOAD B 4.4 18:20:42 10° NNE 18:26:18 82° ESE 18:32:00 10° SSW
Cosmos 2333 Rocket 2.5 18:26:08 10° NNW 18:31:47 76° ENE 18:37:32 10° SSE
COSMO-SKYMED 1 2.7 18:27:27 10° S 18:31:48 54° WSW 18:36:04 10° NNW
Cosmos 1269 Rocket 4.3 18:29:08 10° NW 18:34:17 47° WSW 18:39:30 10° SSE
SL-4 R/B 3.1 18:30:20 10° NW 18:34:43 52° NNE 18:39:19 10° ESE
Cosmos-2242 4.2 18:31:21 10° WNW 18:34:52 23° WSW 18:38:27 10° SSW
SJ-6B 4.2 18:31:30 10° NE 18:35:00 37° ESE 18:38:30 10° S
Cosmos 1933 3.4 18:31:57 10° NNW 18:36:01 63° WSW 18:40:09 10° S
Meteor 1-26 Rocket 4.5 18:31:03 10° N 18:36:44 81° E 18:42:40 10° SSE
Cosmos 2333 4.4 18:34:49 10° NNW 18:40:27 81° ENE 18:46:13 10° SSE
USA 81 4.2 18:38:06 10° SSW 18:43:19 53° W 18:48:28 10° NNW
Cosmos 2219 Rocket 2.8 18:38:21 10° NNW 18:43:54 65° ENE 18:49:31 10° SSE
Cosmos 1812 3.3 18:42:16 10° NW 18:45:46 35° WSW 18:49:19 10° S
CZ-4B R/B 3.4 18:45:44 10° NNE 18:51:28 88° W 18:57:10 10° SSW
Cosmos 1743 Rocket 4.3 18:47:46 10° S 18:52:18 59° ESE 18:56:46 10° NNE
CZ-4 R/B 1.4 18:49:51 10° NNE 18:53:52 87° WNW 18:58:04 10° SSW
Cosmos 1666 4.4 18:52:24 10° SW 18:54:32 15° W 18:56:40 10° WNW
NOSS 3-3 (A) 4.0 18:51:52 10° SW 18:58:29 73° NW 19:04:05 10° NNE
NOSS 3-3 (C) 4.0 18:51:57 10° SW 18:58:34 74° NW 19:04:11 10° NNE
